Sedona, AZ

9:28 AM MST on December 12, 2019 (GMT -0700)
Sedona

Weather History for KSEZ - November, 2019

Change the Weather History Date:

Wednesday, November 20, 2019

  Actual Average Record
Temperature  
Mean Temperature 45 °F -  
Max Temperature 51 °F 62 °F 69 °F (2012)
Min Temperature 39 °F 33 °F 39 °F (2019)
Degree Days  
Heating Degree Days 20    
Moisture  
Dew Point 45 °F    
Average Humidity 96    
Maximum Humidity 100    
Minimum Humidity 76    
Precipitation  
Precipitation 1.49 in - - ()
Sea Level Pressure  
Sea Level Pressure 29.72 in    
Wind  
Wind Speed 12 mph (SSE)    
Max Wind Speed 24 mph    
Max Gust Speed 34 mph    
Visibility 7 miles    
Events Rain , Thunderstorm    
Averages and records for this station are not official NWS values.
T = Trace of Precipitation, MM = Missing Value Source: NWS Daily Summary

Daily Weather History Graph

Daily Weather History Graph

Search for Another Location

Airport or City:

Astronomy

Nov. 20, 2019 Rise Set
Actual Time 7:06 AM MST 5:19 PM MST
Civil Twilight 6:38 AM MST 5:46 PM MST
Nautical Twilight 6:08 AM MST 6:17 PM MST
Astronomical Twilight 5:38 AM MST 6:47 PM MST
Moon 12:16 AM MST (11/20) 1:58 PM MST (11/20)
Length of Visible Light 11h 07m
Length of Day
10h 13m
Last Quarter, 40% of the Moon is Illuminated
Nov 20
Last Quarter
Nov 26
New
Dec 3
First Quarter
Dec 11
Full
Dec 18
Last Quarter

Hourly Weather History & Observations

Time (MST) Temp. Windchill Dew Point Humidity Pressure Visibility Wind Dir Wind Speed Gust Speed Precip Events Conditions
12:15 AM 51.8 °F - 44.6 °F 76% 29.72 in 10.0 mi SE 6.9 mph - N/A   Overcast
12:35 AM 50.0 °F - 46.4 °F 87% 29.72 in 10.0 mi SE 6.9 mph - N/A Rain Light Rain
12:55 AM 50.0 °F - 48.2 °F 94% 29.72 in 7.0 mi South 6.9 mph - 0.03 in Rain Rain
1:15 AM 50.0 °F - 48.2 °F 94% 29.72 in 10.0 mi South 6.9 mph - N/A   Overcast
1:35 AM 50.0 °F - 48.2 °F 94% 29.71 in 7.0 mi SSE 10.4 mph - 0.01 in Rain Rain
1:55 AM 50.0 °F - 48.2 °F 94% 29.72 in 10.0 mi SSE 10.4 mph 17.3 mph 0.01 in Thunderstorm Overcast
2:15 AM 50.0 °F - 48.2 °F 94% 29.70 in 10.0 mi SE 18.4 mph 24.2 mph N/A   Light Drizzle
2:35 AM 50.0 °F - 48.2 °F 94% 29.70 in 10.0 mi SSE 16.1 mph 21.9 mph N/A Rain Light Rain
2:55 AM 50.0 °F - 50.0 °F 100% 29.70 in 10.0 mi SSE 16.1 mph 20.7 mph 0.01 in   Overcast
3:15 AM 50.0 °F - 50.0 °F 100% 29.68 in 10.0 mi SSE 18.4 mph 24.2 mph 0.01 in Rain , Thunderstorm Light Thunderstorms and Rain
3:35 AM 50.0 °F - 48.2 °F 94% 29.68 in 10.0 mi SSE 12.7 mph 19.6 mph 0.01 in Rain , Thunderstorm Light Thunderstorms and Rain
3:55 AM 50.0 °F - 48.2 °F 94% 29.67 in 10.0 mi SSE 11.5 mph - 0.01 in   Overcast
4:15 AM 48.2 °F - 48.2 °F 100% 29.68 in 3.0 mi South 21.9 mph 32.2 mph 0.09 in Rain Heavy Rain
4:35 AM 46.4 °F 42.9 °F 44.6 °F 93% 29.69 in 5.0 mi South 6.9 mph 23.0 mph 0.15 in Rain Rain
4:55 AM 46.4 °F 42.4 °F 44.6 °F 93% 29.69 in 7.0 mi ESE 8.1 mph - 0.20 in Rain Light Rain
5:15 AM 46.4 °F 40.7 °F 44.6 °F 93% 29.68 in 10.0 mi ESE 12.7 mph - N/A   Overcast
5:35 AM 44.6 °F 38.8 °F 44.6 °F 100% 29.67 in 7.0 mi SE 11.5 mph - 0.01 in Rain Light Rain
6:15 AM 44.6 °F 37.4 °F 44.6 °F 100% 29.66 in 10.0 mi SE 16.1 mph 23.0 mph N/A   Overcast
6:35 AM 44.6 °F 38.1 °F 44.6 °F 100% 29.66 in 10.0 mi SE 13.8 mph - N/A Rain Light Rain
7:35 AM 46.4 °F 40.1 °F 46.4 °F 100% 29.67 in 7.0 mi SSE 15.0 mph 19.6 mph 0.02 in Rain Rain
7:55 AM 46.4 °F 39.2 °F 46.4 °F 100% 29.67 in 5.0 mi South 18.4 mph 25.3 mph 0.05 in Rain Light Rain
8:15 AM 46.4 °F 40.1 °F 46.4 °F 100% 29.67 in 7.0 mi SSE 15.0 mph 25.3 mph 0.01 in Rain Light Rain
8:35 AM 46.4 °F 40.4 °F 46.4 °F 100% 29.68 in 5.0 mi SE 13.8 mph 24.2 mph 0.03 in Rain Rain
8:55 AM 46.4 °F 41.9 °F 46.4 °F 100% 29.68 in 4.0 mi SSE 9.2 mph 16.1 mph 0.06 in Rain Light Rain
9:15 AM 46.4 °F 39.0 °F 46.4 °F 100% 29.68 in 5.0 mi SSE 19.6 mph 23.0 mph 0.02 in Rain Rain
9:35 AM 46.4 °F 40.1 °F 46.4 °F 100% 29.69 in 2.5 mi South 15.0 mph 28.8 mph 0.07 in Rain Rain
9:55 AM 46.4 °F 39.0 °F 46.4 °F 100% 29.70 in 5.0 mi South 19.6 mph 27.6 mph 0.10 in Rain Light Rain
10:15 AM 46.4 °F 40.1 °F 46.4 °F 100% 29.72 in 7.0 mi South 15.0 mph 26.5 mph 0.01 in Rain Light Rain
10:35 AM 46.4 °F 41.1 °F 46.4 °F 100% 29.72 in 10.0 mi SE 11.5 mph 19.6 mph 0.01 in Rain Light Rain
10:55 AM 46.4 °F 41.9 °F 46.4 °F 100% 29.73 in 10.0 mi SSE 9.2 mph 16.1 mph 0.02 in Rain Light Rain
11:15 AM 48.2 °F - 46.4 °F 93% 29.73 in 5.0 mi SE 12.7 mph - 0.01 in Rain Light Rain
11:35 AM 48.2 °F - 48.2 °F 100% 29.72 in 5.0 mi SE 15.0 mph - 0.01 in Rain Light Rain
11:55 AM 46.4 °F 40.7 °F 46.4 °F 100% 29.72 in 3.0 mi SE 12.7 mph 19.6 mph 0.02 in Rain Rain
12:15 PM 46.4 °F 42.9 °F 46.4 °F 100% 29.72 in 7.0 mi SE 6.9 mph - 0.01 in Rain Light Rain
12:35 PM 48.2 °F - 46.4 °F 93% 29.72 in 5.0 mi SE 4.6 mph - 0.02 in Rain Light Rain
12:55 PM 46.4 °F 42.4 °F 46.4 °F 100% 29.70 in 3.0 mi South 8.1 mph - 0.07 in Rain Rain
1:15 PM 46.4 °F 42.4 °F 46.4 °F 100% 29.70 in 5.0 mi SSW 8.1 mph - 0.04 in Rain Rain
1:35 PM 46.4 °F 41.1 °F 46.4 °F 100% 29.69 in 10.0 mi SW 11.5 mph 19.6 mph 0.06 in Rain Light Rain
1:55 PM 46.4 °F 42.4 °F 44.6 °F 93% 29.69 in 7.0 mi SSW 8.1 mph - 0.08 in Rain Rain
2:15 PM 46.4 °F 44.3 °F 46.4 °F 100% 29.69 in 5.0 mi SE 4.6 mph - 0.01 in Rain Rain
2:35 PM 46.4 °F 42.4 °F 46.4 °F 100% 29.69 in 7.0 mi South 8.1 mph - 0.03 in Rain Rain
2:55 PM 48.2 °F - 46.4 °F 93% 29.68 in 3.0 mi SE 17.3 mph - 0.05 in Rain Light Rain
3:15 PM 48.2 °F - 46.4 °F 93% 29.67 in 2.5 mi SE 23.0 mph 26.5 mph 0.03 in Rain Light Rain
3:35 PM 46.4 °F 38.3 °F 46.4 °F 100% 29.67 in 4.0 mi SE 23.0 mph 28.8 mph 0.05 in Rain Rain
3:55 PM 46.4 °F 39.5 °F 46.4 °F 100% 29.68 in 3.0 mi SE 17.3 mph 25.3 mph 0.10 in Rain Rain
4:15 PM 46.4 °F 39.8 °F 44.6 °F 93% 29.68 in 5.0 mi SE 16.1 mph 24.2 mph 0.02 in Rain Light Rain
4:35 PM 46.4 °F 38.7 °F 44.6 °F 93% 29.67 in 4.0 mi SE 20.7 mph 28.8 mph 0.05 in Rain Rain
4:55 PM 46.4 °F 38.1 °F 44.6 °F 93% 29.68 in 3.0 mi SSE 24.2 mph 31.1 mph 0.09 in Rain Rain
5:35 PM 46.4 °F 41.5 °F 46.4 °F 100% 29.68 in 4.0 mi SSE 10.4 mph - 0.03 in Rain Light Rain
5:55 PM 46.4 °F 38.3 °F 44.6 °F 93% 29.68 in 5.0 mi SSE 23.0 mph 34.5 mph 0.10 in Rain Rain
6:15 PM 44.6 °F 36.4 °F 44.6 °F 100% 29.70 in 4.0 mi SSE 20.7 mph 34.5 mph 0.04 in Rain Rain
6:35 PM 44.6 °F 37.2 °F 44.6 °F 100% 29.71 in 10.0 mi South 17.3 mph 24.2 mph 0.06 in Rain , Thunderstorm Light Thunderstorms and Rain
6:55 PM 44.6 °F 36.4 °F 44.6 °F 100% 29.71 in 3.0 mi SE 20.7 mph 31.1 mph 0.15 in Rain Heavy Rain
7:15 PM 44.6 °F 36.9 °F 42.8 °F 93% 29.73 in 3.0 mi SSE 18.4 mph 32.2 mph 0.08 in Rain Heavy Rain
7:35 PM 44.6 °F 38.8 °F 42.8 °F 93% 29.76 in 3.0 mi South 11.5 mph 23.0 mph 0.18 in Rain Heavy Rain
7:55 PM 42.8 °F 37.0 °F 41.0 °F 93% 29.77 in 7.0 mi West 10.4 mph - 0.19 in Rain Light Rain
8:15 PM 41.0 °F 39.0 °F 41.0 °F 100% 29.78 in 10.0 mi West 3.5 mph - 0.01 in Rain Light Rain
8:35 PM 42.8 °F 38.0 °F 41.0 °F 93% 29.81 in 10.0 mi SSW 8.1 mph - 0.02 in Rain Heavy Rain
8:55 PM 41.0 °F 35.2 °F 41.0 °F 100% 29.81 in 7.0 mi WSW 9.2 mph - 0.07 in Rain Light Rain
9:15 PM 41.0 °F 33.5 °F 41.0 °F 100% 29.82 in 4.0 mi WNW 13.8 mph 18.4 mph 0.02 in Rain Rain
9:35 PM 39.2 °F 37.0 °F 37.4 °F 93% 29.81 in 10.0 mi NW 3.5 mph - 0.02 in Rain Light Rain
9:55 PM 41.0 °F - 37.4 °F 87% 29.81 in 10.0 mi Calm Calm - 0.02 in   Overcast
10:15 PM 39.2 °F 34.2 °F 39.2 °F 100% 29.82 in 10.0 mi East 6.9 mph - N/A   Overcast
10:35 PM 41.0 °F 37.1 °F 39.2 °F 93% 29.82 in 10.0 mi East 5.8 mph - N/A   Overcast
10:55 PM 41.0 °F 34.7 °F 39.2 °F 93% 29.84 in 5.0 mi West 10.4 mph - 0.02 in Rain Rain
11:15 PM 39.2 °F 37.0 °F 37.4 °F 93% 29.85 in 7.0 mi SSW 3.5 mph 18.4 mph 0.02 in Rain Light Rain
11:35 PM 39.2 °F - 37.4 °F 93% 29.85 in 10.0 mi Calm Calm - 0.02 in   Overcast
11:55 PM 41.0 °F 37.1 °F 39.2 °F 93% 29.84 in 7.0 mi ENE 5.8 mph - 0.03 in Rain Light Rain